« Back
NWS Peachtree City, Ga » Text Product » GA Regional Weather Roundup


Printer-friendly Version
Current Version              Previous Versions:   1  2  3  4  5  6  7  8  9  

Regional Weather Roundup

797
ASUS42 KFFC 281803
RWRGA
WEATHER ROUNDUP FOR GEORGIA
NATIONAL WEATHER SERVICE PEACHTREE CITY GA
200 PM EDT THU JUL 28 2016

NOTE: "FAIR" INDICATES FEW OR NO CLOUDS BELOW 12,000 FEET WITH NO
SIGNIFICANT WEATHER AND/OR OBSTRUCTIONS TO VISIBILITY.

* = USE WITH CAUTION. THE STATIONS MARKED WITH AN ASTERISK MAY NOT
REPORT WEATHER SUCH AS PRECIPITATION, FOG, OR THUNDER AND ARE NOT
QUALITY CONTROLLED BY NWS.

THE REMARK "TC" DENOTES TEMPERATURE READING IN DEGREES CELSIUS.

GAZ001>058-281900-
NORTH GEORGIA

CITY           SKY/WX    TMP DP  RH WIND       PRES   REMARKS
ATLANTA        PTSUNNY   85  70  60 SW13G18   30.03F
6HR MIN TEMP:  75; 6HR MAX TEMP:  87;

ATHENS         PTSUNNY   90  69  50 SW9G21    30.01F HX  94
6HR MIN TEMP:  76; 6HR MAX TEMP:  93;

CHAMBLEE       PTSUNNY   87  69  54 SW13      30.02F HX  91
6HR MIN TEMP:  74; 6HR MAX TEMP:  87;

PEACHTREE CITY PTSUNNY   86  69  56 W12G18    30.04F HX  90
6HR MIN TEMP:  75; 6HR MAX TEMP:  87;

ROME           CLOUDY    86  68  54 SW8G17    29.98F
6HR MIN TEMP:  76; 6HR MAX TEMP:  86;

WEST ATLANTA   PTSUNNY   85  68  56 SW12G18   30.02F
6HR MIN TEMP:  73; 6HR MAX TEMP:  87;

GAINESVILLE    CLOUDY    84  67  56 W10G21    30.05F
6HR MIN TEMP:  74; 6HR MAX TEMP:  85;

CARTERSVILLE   MOSUNNY   86  70  58 VRB6      30.01F HX  90
6HR MIN TEMP:  75; 6HR MAX TEMP:  86;



CITY           SKY/WX    TMP DP  RH WIND       PRES   REMARKS
DALTON*        CLOUDY    82  70  65 S5        29.99F
LAWRENCEVILLE* PTSUNNY   84  72  65 SW14      30.02F
CANTON*        MOSUNNY   82  61  47 SW7       30.04F
BLAIRSVILLE*     N/A    N/A N/A N/A MISG      30.06F
$$

GAZ059>098-102>109-281900-
CENTRAL GEORGIA

CITY           SKY/WX    TMP DP  RH WIND       PRES   REMARKS
AUGUSTA-BUSH   MOSUNNY   98  64  32 SW15G23   29.96F HX 100
6HR MIN TEMP:  79; 6HR MAX TEMP:  98;

AUGUSTA-DANIEL SUNNY     96  65  35 SW12G24   29.98F HX  98
6HR MIN TEMP:  82; 6HR MAX TEMP:  96;

COLUMBUS       PTSUNNY   90  66  45 W14       30.03F HX  92
6HR MIN TEMP:  75; 6HR MAX TEMP:  92;

MACON          MOSUNNY   94  66  39 W17G25    30.01F HX  97
6HR MIN TEMP:  77; 6HR MAX TEMP:  96;



CITY           SKY/WX    TMP DP  RH WIND       PRES   REMARKS
LAGRANGE*      PTSUNNY   91  74  57 W12G18    30.04F HX 101
MILLEDGEVILLE* MOSUNNY   93  72  49 SW3       30.01S HX 100
$$

GAZ099>101-110>166-281900-
SOUTH GEORGIA

CITY           SKY/WX    TMP DP  RH WIND       PRES   REMARKS
SAVANNAH       MOSUNNY   97  65  34 SW15      30.00F HX  99
6HR MIN TEMP:  80; 6HR MAX TEMP:  98;

VALDOSTA       MOSUNNY   93  70  46 VRB5      30.04F HX  99
6HR MIN TEMP:  78; 6HR MAX TEMP:  94;

ALMA           SUNNY     96  63  33 SW13      30.02F HX  97
6HR MIN TEMP:  78; 6HR MAX TEMP:  97;

ST SIMONS      MOSUNNY   95  74  50 SE14      30.02F HX 105
6HR MIN TEMP:  82; 6HR MAX TEMP:  96;

ALBANY         MOSUNNY   93  67  42 W9        30.06F HX  96
BRUNSWICK      MOSUNNY   97  72  44 SW9G16    30.02F HX 105


CITY           SKY/WX    TMP DP  RH WIND       PRES   REMARKS
BAINBRIDGE*    MOSUNNY   91  70  49 W9        30.05F HX  97
MOULTRIE*      SUNNY     93  68  43 SW9       30.06S HX  97
VIDALIA*       MOSUNNY   97  63  32 W13G20    30.01F HX  98
WAYCROSS*      SUNNY    100  69  36 W13       30.02F HX 106
DOUGLAS*       SUNNY     95  63  34 SW13      30.04F HX  96
$$




USA.gov is the U.S. government's official web portal to all federal, state and local government web resources and services.